Location: *
(32.8667°N, 13.1833°E)
Time: 09:29:22
(UTC+00:00)

Cosmos 1515 Rocket - Pass Details

Date: 18 July 2019
Orbit: 605 x 631 km, 82.5° (Epoch: 23 August)

Event Time Altitude Azimuth Distance (km) Brightness Sun altitude
Rises 20:14:44 0° 358° (N) 2,875 7.7 -21.3°
Reaches altitude 10° 20:17:00 10° 3° (N) 1,964 6.7 -21.6°
Enters shadow 20:21:13 57° 78° (ENE) 715 3.6 -22.3°
